QPF
0.00 0.00 0.00 0.00 0.00 0.00 0.00 0.00 0.00 0.00 0.00 0.00 0.00 0.00 0.01 0.01 0.01 0.02 0.01 0.01 0.01 0.01 0.01 0.02 0.01 0.01 0.01 0.03 0.05 0.05 0.09 0.10 0.12 0.12 0.10 0.09 0.10 0.11 0.11 0.10 0.10 0.10 0.10 0.09
0.00 0.00 0.00 0.00 0.00 0.00 0.00 0.00 0.00 0.00 0.00 0.00 0.00 0.00 0.01 0.01 0.02 0.01 0.02 0.02 0.01 0.02 0.03 0.03 0.02 0.02 0.01 0.02 0.04 0.04 0.05 0.05 0.06 0.08 0.07 0.08 0.07 0.08 0.09 0.09 0.10 0.10 0.10 0.10
0.00 0.00 0.00 0.00 0.00 0.00 0.00 0.00 0.00 0.00 0.00 0.00 0.00 0.01 0.01 0.01 0.01 0.02 0.02 0.02 0.02 0.03 0.04 0.03 0.03 0.04 0.03 0.02 0.02 0.03 0.03 0.03 0.04 0.05 0.06 0.06 0.07 0.07 0.08 0.09 0.10 0.12 0.13 0.13
0.00 0.00 0.00 0.00 0.00 0.00 0.00 0.00 0.00 0.00 0.00 0.00 0.01 0.01 0.02 0.02 0.02 0.02 0.02 0.02 0.03 0.04 0.05 0.04 0.04 0.04 0.05 0.05 0.05 0.06 0.05 0.06 0.07 0.06 0.06 0.06 0.07 0.07 0.07 0.09 0.10 0.10 0.09 0.09
0.00 0.00 0.00 0.00 0.00 0.00 0.00 0.01 0.01 0.01 0.01 0.01 0.01 0.03 0.03 0.04 0.03 0.03 0.03 0.03 0.05 0.07 0.06 0.06 0.06 0.06 0.07 0.08 0.10 0.10 0.09 0.09 0.10 0.10 0.10 0.10 0.12 0.12 0.11 0.10 0.07 0.06 0.05 0.05
0.00 0.00 0.00 0.00 0.00 0.00 0.00 0.01 0.01 0.01 0.01 0.02 0.02 0.03 0.03 0.03 0.04 0.04 0.04 0.04 0.06 0.08 0.08 0.07 0.08 0.10 0.11 0.12 0.12 0.13 0.12 0.10 0.12 0.15 0.18 0.19 0.19 0.18 0.16 0.13 0.09 0.07 0.06 0.06
0.00 0.00 0.00 0.00 0.01 0.01 0.01 0.01 0.01 0.01 0.01 0.01 0.01 0.02 0.02 0.02 0.02 0.03 0.04 0.04 0.05 0.08 0.10 0.11 0.14 0.17 0.20 0.18 0.14 0.14 0.13 0.12 0.13 0.17 0.19 0.20 0.20 0.19 0.19 0.18 0.15 0.13 0.11 0.10
0.00 0.00 0.00 0.00 0.01 0.01 0.00 0.00 0.01 0.01 0.01 0.01 0.01 0.01 0.01 0.01 0.02 0.03 0.04 0.05 0.06 0.07 0.09 0.11 0.14 0.18 0.21 0.22 0.21 0.20 0.20 0.18 0.18 0.20 0.21 0.19 0.17 0.16 0.16 0.16 0.15 0.13 0.10 0.09
0.01 0.01 0.01 0.01 0.01 0.01 0.01 0.02 0.01 0.01 0.01 0.01 0.01 0.01 0.01 0.01 0.02 0.04 0.05 0.05 0.06 0.08 0.10 0.11 0.15 0.19 0.23 0.24 0.24 0.23 0.25 0.25 0.24 0.25 0.27 0.26 0.24 0.20 0.17 0.15 0.14 0.12 0.09 0.07
0.02 0.03 0.02 0.02 0.02 0.03 0.04 0.04 0.04 0.03 0.03 0.03 0.02 0.02 0.02 0.02 0.03 0.05 0.05 0.04 0.06 0.06 0.07 0.09 0.12 0.15 0.19 0.21 0.21 0.23 0.24 0.24 0.22 0.22 0.21 0.20 0.18 0.16 0.14 0.13 0.13 0.13 0.11 0.09
0.02 0.03 0.03 0.02 0.02 0.02 0.03 0.03 0.03 0.03 0.02 0.03 0.02 0.02 0.01 0.02 0.02 0.03 0.03 0.04 0.05 0.05 0.05 0.07 0.10 0.11 0.14 0.16 0.17 0.20 0.21 0.21 0.19 0.16 0.13 0.12 0.14 0.15 0.15 0.15 0.14 0.13 0.12 0.10
0.02 0.02 0.02 0.02 0.01 0.01 0.01 0.02 0.01 0.01 0.01 0.01 0.01 0.01 0.01 0.02 0.02 0.03 0.03 0.05 0.07 0.08 0.08 0.08 0.08 0.09 0.10 0.11 0.11 0.12 0.14 0.14 0.15 0.15 0.14 0.12 0.12 0.13 0.14 0.13 0.13 0.13 0.13 0.12
0.01 0.01 0.01 0.02 0.02 0.02 0.02 0.02 0.01 0.01 0.01 0.02 0.01 0.01 0.01 0.02 0.02 0.02 0.03 0.04 0.04 0.05 0.05 0.06 0.07 0.09 0.09 0.08 0.09 0.10 0.10 0.09 0.10 0.12 0.14 0.14 0.12 0.12 0.13 0.14 0.13 0.12 0.12 0.11
0.01 0.01 0.01 0.01 0.01 0.01 0.02 0.02 0.02 0.03 0.02 0.02 0.02 0.03 0.03 0.03 0.03 0.04 0.05 0.05 0.04 0.05 0.06 0.06 0.06 0.05 0.07 0.06 0.08 0.11 0.12 0.12 0.11 0.10 0.11 0.12 0.13 0.14 0.13 0.12 0.10 0.08 0.06 0.05
0.03 0.01 0.01 0.01 0.01 0.01 0.01 0.02 0.03 0.04 0.04 0.03 0.03 0.03 0.03 0.03 0.04 0.07 0.07 0.06 0.06 0.06 0.08 0.08 0.07 0.05 0.05 0.05 0.05 0.07 0.09 0.11 0.11 0.11 0.11 0.11 0.11 0.10 0.09 0.07 0.05 0.04 0.03 0.02
0.02 0.01 0.01 0.02 0.02 0.02 0.02 0.03 0.03 0.03 0.03 0.03 0.04 0.04 0.03 0.03 0.04 0.04 0.05 0.06 0.07 0.08 0.09 0.08 0.08 0.06 0.05 0.04 0.03 0.04 0.05 0.06 0.06 0.06 0.06 0.05 0.04 0.04 0.03 0.03 0.02 0.02 0.01 0.01
0.02 0.02 0.01 0.01 0.02 0.02 0.03 0.04 0.03 0.02 0.01 0.02 0.02 0.03 0.03 0.04 0.05 0.05 0.05 0.06 0.08 0.08 0.08 0.08 0.08 0.06 0.05 0.04 0.02 0.03 0.03 0.03 0.03 0.02 0.02 0.02 0.01 0.01 0.01 0.01 0.00 0.00 0.00 0.00
0.03 0.02 0.02 0.01 0.01 0.02 0.03 0.04 0.03 0.02 0.02 0.02 0.02 0.03 0.03 0.04 0.05 0.05 0.04 0.05 0.06 0.07 0.07 0.05 0.04 0.03 0.03 0.03 0.03 0.02 0.02 0.02 0.01 0.01 0.01 0.01 0.00 0.00 0.00 0.00 0.00 0.00 0.00 0.00
0.03 0.03 0.02 0.03 0.02 0.03 0.03 0.03 0.03 0.04 0.03 0.03 0.03 0.03 0.03 0.03 0.04 0.04 0.03 0.04 0.04 0.04 0.04 0.03 0.03 0.04 0.03 0.03 0.03 0.02 0.01 0.01 0.00 0.00 0.00 0.00 0.00 0.00 0.00 0.00 0.00 0.00 0.00 0.00
0.04 0.04 0.03 0.04 0.04 0.03 0.03 0.03 0.03 0.03 0.03 0.02 0.03 0.03 0.04 0.04 0.05 0.04 0.03 0.02 0.03 0.02 0.02 0.02 0.02 0.03 0.04 0.03 0.02 0.01 0.01 0.00 0.00 0.00 0.00 0.00 0.00 0.00 0.00 0.00 0.00 0.00 0.00 0.00
0.04 0.04 0.04 0.03 0.03 0.03 0.03 0.02 0.02 0.02 0.02 0.02 0.02 0.03 0.04 0.05 0.04 0.03 0.02 0.02 0.02 0.02 0.01 0.02 0.02 0.02 0.02 0.01 0.01 0.01 0.00 0.00 0.00 0.00 0.00 0.00 0.00 0.00 0.00 0.00 0.00 0.00 0.00 0.00
0.04 0.03 0.02 0.02 0.03 0.03 0.03 0.02 0.02 0.01 0.02 0.02 0.02 0.02 0.02 0.02 0.02 0.01 0.01 0.01 0.01 0.01 0.00 0.00 0.00 0.00 0.00 0.00 0.00 0.00 0.00 0.00 0.00 0.00 0.00 0.00 0.00 0.00 0.00 0.00 0.00 0.00 0.00 0.00
0.04 0.03 0.02 0.02 0.03 0.03 0.04 0.03 0.02 0.02 0.02 0.01 0.01 0.01 0.01 0.01 0.01 0.00 0.00 0.00 0.00 0.00 0.00 0.00 0.00 0.00 0.00 0.00 0.00 0.00 0.00 0.00 0.00 0.00 0.00 0.00 0.00 0.00 0.00 0.00 0.00 0.00 0.00 0.00
0.03 0.04 0.03 0.02 0.02 0.03 0.04 0.04 0.03 0.02 0.02 0.01 0.01 0.01 0.00 0.00 0.00 0.00 0.00 0.00 0.00 0.00 0.00 0.00 0.00 0.00 0.00 0.00 0.00 0.00 0.00 0.00 0.00 0.00 0.00 0.00 0.00 0.00 0.00 0.00 0.00 0.00 0.00 0.00
0.04 0.04 0.03 0.02 0.03 0.02 0.03 0.03 0.03 0.02 0.01 0.01 0.01 0.00 0.00 0.00 0.01 0.00 0.00 0.00 0.00 0.00 0.00 0.00 0.00 0.00 0.00 0.00 0.00 0.00 0.00 0.00 0.00 0.00 0.00 0.00 0.00 0.00 0.00 0.00 0.00 0.00 0.00 0.00
0.05 0.05 0.04 0.03 0.03 0.02 0.02 0.03 0.02 0.02 0.01 0.00 0.00 0.00 0.00 0.00 0.00 0.00 0.00 0.00 0.00 0.00 0.00 0.00 0.00 0.00 0.00 0.00 0.00 0.00 0.00 0.00 0.00 0.00 0.00 0.00 0.00 0.00 0.00 0.00 0.00 0.00 0.00 0.00
0.07 0.06 0.04 0.04 0.03 0.02 0.02 0.03 0.02 0.02 0.01 0.01 0.01 0.01 0.01 0.01 0.01 0.01 0.01 0.01 0.01 0.00 0.00 0.00 0.00 0.00 0.00 0.00 0.00 0.00 0.00 0.00 0.00 0.00 0.00 0.00 0.00 0.00 0.00 0.00 0.00 0.00 0.00 0.00
MSLP
1008.61 1009.02 1009.44 1009.86 1010.24 1010.52 1010.68 1010.69 1010.54 1010.26 1009.87 1009.42 1008.98 1008.60 1008.32 1008.18 1008.17 1008.28 1008.50 1008.77 1009.06 1009.34 1009.58 1009.78 1009.94 1010.07 1010.19 1010.32 1010.46 1010.64 1010.84 1011.07 1011.34 1011.63 1011.96 1012.33 1012.73 1013.18 1013.67 1014.18 1014.72 1015.26 1015.79 1016.30
1008.87 1009.22 1009.54 1009.81 1009.98 1010.06 1010.04 1009.91 1009.70 1009.43 1009.13 1008.83 1008.59 1008.41 1008.32 1008.33 1008.41 1008.56 1008.75 1008.96 1009.16 1009.34 1009.50 1009.64 1009.78 1009.91 1010.07 1010.25 1010.46 1010.68 1010.94 1011.20 1011.49 1011.80 1012.14 1012.50 1012.91 1013.36 1013.85 1014.36 1014.89 1015.43 1015.95 1016.45
1009.26 1009.56 1009.77 1009.89 1009.89 1009.79 1009.61 1009.37 1009.11 1008.86 1008.64 1008.48 1008.41 1008.41 1008.49 1008.62 1008.78 1008.95 1009.10 1009.23 1009.34 1009.41 1009.48 1009.55 1009.64 1009.77 1009.94 1010.15 1010.40 1010.69 1010.99 1011.30 1011.63 1011.98 1012.34 1012.73 1013.16 1013.63 1014.13 1014.65 1015.18 1015.71 1016.23 1016.72
1009.76 1009.98 1010.09 1010.07 1009.93 1009.69 1009.39 1009.07 1008.78 1008.55 1008.41 1008.37 1008.43 1008.58 1008.78 1009.01 1009.22 1009.40 1009.52 1009.57 1009.58 1009.54 1009.51 1009.49 1009.52 1009.61 1009.76 1009.99 1010.27 1010.59 1010.94 1011.30 1011.69 1012.09 1012.51 1012.96 1013.44 1013.96 1014.49 1015.05 1015.60 1016.14 1016.65 1017.13
1010.26 1010.41 1010.42 1010.29 1010.04 1009.71 1009.34 1008.98 1008.68 1008.48 1008.40 1008.45 1008.62 1008.88 1009.17 1009.46 1009.70 1009.87 1009.95 1009.93 1009.84 1009.70 1009.56 1009.44 1009.39 1009.41 1009.52 1009.73 1010.01 1010.35 1010.74 1011.16 1011.62 1012.09 1012.60 1013.14 1013.72 1014.32 1014.93 1015.55 1016.15 1016.72 1017.25 1017.73
1010.70 1010.75 1010.69 1010.49 1010.18 1009.80 1009.40 1009.03 1008.74 1008.58 1008.57 1008.69 1008.93 1009.26 1009.61 1009.93 1010.18 1010.33 1010.36 1010.27 1010.09 1009.85 1009.60 1009.38 1009.23 1009.17 1009.22 1009.38 1009.63 1009.98 1010.40 1010.88 1011.41 1011.99 1012.62 1013.28 1013.98 1014.71 1015.44 1016.15 1016.84 1017.46 1018.03 1018.52
1010.97 1010.96 1010.84 1010.60 1010.28 1009.90 1009.52 1009.18 1008.94 1008.83 1008.86 1009.04 1009.33 1009.69 1010.06 1010.40 1010.64 1010.76 1010.74 1010.59 1010.33 1010.00 1009.65 1009.33 1009.07 1008.92 1008.88 1008.98 1009.20 1009.54 1009.98 1010.52 1011.14 1011.83 1012.59 1013.40 1014.26 1015.14 1016.01 1016.86 1017.64 1018.35 1018.97 1019.50
1011.05 1010.99 1010.85 1010.62 1010.33 1010.00 1009.68 1009.41 1009.23 1009.18 1009.26 1009.48 1009.79 1010.16 1010.54 1010.86 1011.08 1011.17 1011.11 1010.91 1010.58 1010.18 1009.75 1009.33 1008.98 1008.73 1008.61 1008.64 1008.82 1009.14 1009.60 1010.19 1010.90 1011.71 1012.61 1013.58 1014.60 1015.64 1016.67 1017.65 1018.55 1019.35 1020.04 1020.60
1010.94 1010.86 1010.73 1010.55 1010.33 1010.09 1009.86 1009.69 1009.60 1009.61 1009.74 1009.98 1010.31 1010.67 1011.03 1011.33 1011.53 1011.59 1011.50 1011.27 1010.90 1010.45 1009.96 1009.47 1009.05 1008.72 1008.53 1008.50 1008.63 1008.94 1009.41 1010.05 1010.83 1011.75 1012.78 1013.89 1015.06 1016.25 1017.41 1018.52 1019.53 1020.41 1021.16 1021.76
1010.68 1010.62 1010.54 1010.44 1010.32 1010.20 1010.09 1010.02 1010.02 1010.11 1010.28 1010.54 1010.87 1011.22 1011.56 1011.84 1012.02 1012.06 1011.97 1011.72 1011.34 1010.88 1010.36 1009.84 1009.37 1009.00 1008.76 1008.68 1008.79 1009.08 1009.56 1010.23 1011.07 1012.06 1013.19 1014.41 1015.69 1016.98 1018.24 1019.44 1020.52 1021.47 1022.25 1022.88
1010.35 1010.34 1010.34 1010.34 1010.35 1010.35 1010.37 1010.42 1010.51 1010.65 1010.87 1011.14 1011.47 1011.81 1012.13 1012.39 1012.57 1012.62 1012.54 1012.31 1011.96 1011.52 1011.02 1010.50 1010.03 1009.65 1009.39 1009.29 1009.38 1009.66 1010.15 1010.84 1011.70 1012.74 1013.91 1015.18 1016.50 1017.84 1019.15 1020.37 1021.48 1022.45 1023.25 1023.89
1010.05 1010.11 1010.21 1010.33 1010.46 1010.59 1010.73 1010.87 1011.04 1011.25 1011.49 1011.78 1012.10 1012.43 1012.74 1013.01 1013.20 1013.28 1013.24 1013.07 1012.78 1012.39 1011.95 1011.48 1011.05 1010.69 1010.44 1010.35 1010.44 1010.72 1011.20 1011.89 1012.75 1013.78 1014.94 1016.20 1017.50 1018.82 1020.09 1021.28 1022.36 1023.30 1024.08 1024.70
1009.84 1009.99 1010.20 1010.43 1010.68 1010.92 1011.16 1011.39 1011.62 1011.86 1012.13 1012.43 1012.75 1013.08 1013.40 1013.68 1013.90 1014.03 1014.05 1013.96 1013.76 1013.46 1013.10 1012.72 1012.35 1012.05 1011.84 1011.78 1011.88 1012.16 1012.64 1013.30 1014.13 1015.11 1016.21 1017.40 1018.62 1019.85 1021.03 1022.14 1023.14 1024.01 1024.74 1025.31
1009.75 1010.01 1010.32 1010.66 1011.01 1011.34 1011.65 1011.94 1012.22 1012.49 1012.78 1013.08 1013.40 1013.74 1014.08 1014.39 1014.65 1014.85 1014.95 1014.95 1014.85 1014.66 1014.41 1014.12 1013.84 1013.61 1013.46 1013.43 1013.55 1013.84 1014.30 1014.93 1015.70 1016.61 1017.62 1018.69 1019.79 1020.89 1021.94 1022.92 1023.81 1024.58 1025.23 1025.75
1009.78 1010.14 1010.56 1010.99 1011.42 1011.82 1012.19 1012.52 1012.83 1013.12 1013.41 1013.72 1014.06 1014.41 1014.77 1015.12 1015.44 1015.70 1015.89 1015.98 1015.98 1015.89 1015.74 1015.55 1015.36 1015.20 1015.11 1015.13 1015.28 1015.57 1016.01 1016.59 1017.30 1018.12 1019.02 1019.96 1020.92 1021.87 1022.78 1023.62 1024.38 1025.05 1025.61 1026.08
1009.88 1010.36 1010.87 1011.39 1011.88 1012.34 1012.74 1013.10 1013.42 1013.72 1014.03 1014.35 1014.70 1015.07 1015.46 1015.86 1016.22 1016.54 1016.80 1016.97 1017.05 1017.05 1016.99 1016.88 1016.76 1016.67 1016.64 1016.70 1016.87 1017.17 1017.59 1018.13 1018.78 1019.51 1020.30 1021.12 1021.95 1022.76 1023.52 1024.24 1024.88 1025.45 1025.94 1026.35
1010.02 1010.60 1011.20 1011.78 1012.33 1012.83 1013.26 1013.64 1013.98 1014.30 1014.62 1014.96 1015.33 1015.73 1016.15 1016.58 1016.98 1017.35 1017.65 1017.88 1018.02 1018.08 1018.07 1018.02 1017.96 1017.92 1017.93 1018.02 1018.21 1018.50 1018.91 1019.42 1020.02 1020.68 1021.39 1022.11 1022.83 1023.52 1024.18 1024.78 1025.34 1025.83 1026.26 1026.63
1010.12 1010.80 1011.48 1012.14 1012.73 1013.26 1013.73 1014.13 1014.49 1014.84 1015.18 1015.55 1015.94 1016.37 1016.82 1017.27 1017.70 1018.09 1018.42 1018.67 1018.84 1018.93 1018.95 1018.93 1018.90 1018.89 1018.93 1019.04 1019.24 1019.55 1019.95 1020.44 1021.00 1021.61 1022.26 1022.91 1023.55 1024.16 1024.74 1025.28 1025.76 1026.20 1026.59 1026.94
1010.16 1010.93 1011.69 1012.40 1013.05 1013.62 1014.11 1014.55 1014.94 1015.32 1015.70 1016.10 1016.53 1016.98 1017.45 1017.92 1018.36 1018.76 1019.10 1019.35 1019.52 1019.61 1019.64 1019.63 1019.61 1019.62 1019.67 1019.80 1020.02 1020.33 1020.73 1021.20 1021.75 1022.33 1022.94 1023.54 1024.14 1024.70 1025.23 1025.72 1026.17 1026.57 1026.94 1027.26
1010.14 1010.99 1011.82 1012.58 1013.27 1013.88 1014.41 1014.89 1015.33 1015.75 1016.17 1016.60 1017.07 1017.55 1018.03 1018.51 1018.96 1019.35 1019.68 1019.92 1020.08 1020.16 1020.18 1020.18 1020.17 1020.19 1020.26 1020.40 1020.63 1020.94 1021.35 1021.82 1022.35 1022.91 1023.49 1024.07 1024.63 1025.16 1025.65 1026.11 1026.53 1026.91 1027.25 1027.56
1010.11 1011.02 1011.89 1012.70 1013.42 1014.07 1014.64 1015.16 1015.64 1016.10 1016.57 1017.05 1017.54 1018.05 1018.55 1019.04 1019.48 1019.87 1020.18 1020.41 1020.55 1020.63 1020.66 1020.66 1020.66 1020.70 1020.78 1020.94 1021.19 1021.51 1021.92 1022.38 1022.90 1023.44 1023.99 1024.53 1025.05 1025.55 1026.01 1026.43 1026.82 1027.17 1027.48 1027.76
1010.12 1011.07 1011.97 1012.80 1013.55 1014.22 1014.82 1015.38 1015.90 1016.40 1016.91 1017.42 1017.95 1018.48 1018.99 1019.48 1019.93 1020.31 1020.61 1020.84 1020.98 1021.07 1021.11 1021.13 1021.16 1021.22 1021.33 1021.52 1021.78 1022.11 1022.50 1022.96 1023.44 1023.95 1024.46 1024.95 1025.42 1025.86 1026.27 1026.65 1026.99 1027.30 1027.57 1027.82
1010.25 1011.20 1012.10 1012.94 1013.69 1014.37 1014.99 1015.57 1016.11 1016.65 1017.19 1017.73 1018.28 1018.82 1019.35 1019.85 1020.29 1020.67 1020.98 1021.21 1021.38 1021.49 1021.56 1021.62 1021.69 1021.78 1021.93 1022.14 1022.41 1022.75 1023.13 1023.55 1023.99 1024.44 1024.89 1025.31 1025.71 1026.07 1026.41 1026.72 1027.00 1027.26 1027.48 1027.68
1010.56 1011.48 1012.35 1013.16 1013.89 1014.56 1015.18 1015.76 1016.32 1016.87 1017.43 1017.99 1018.55 1019.10 1019.64 1020.13 1020.58 1020.97 1021.29 1021.54 1021.74 1021.88 1022.00 1022.10 1022.22 1022.36 1022.55 1022.78 1023.06 1023.39 1023.74 1024.12 1024.50 1024.88 1025.23 1025.56 1025.87 1026.15 1026.40 1026.62 1026.83 1027.02 1027.19 1027.34
1011.05 1011.92 1012.74 1013.50 1014.19 1014.83 1015.43 1015.99 1016.55 1017.10 1017.66 1018.22 1018.78 1019.34 1019.87 1020.37 1020.82 1021.22 1021.55 1021.82 1022.05 1022.23 1022.39 1022.54 1022.71 1022.89 1023.11 1023.35 1023.63 1023.94 1024.25 1024.57 1024.88 1025.16 1025.42 1025.66 1025.86 1026.04 1026.19 1026.34 1026.47 1026.60 1026.72 1026.82
1011.73 1012.52 1013.27 1013.95 1014.59 1015.18 1015.74 1016.28 1016.81 1017.35 1017.90 1018.45 1019.01 1019.55 1020.08 1020.57 1021.02 1021.41 1021.76 1022.05 1022.29 1022.50 1022.70 1022.88 1023.08 1023.29 1023.51 1023.76 1024.02 1024.29 1024.56 1024.81 1025.03 1025.23 1025.39 1025.53 1025.63 1025.72 1025.79 1025.86 1025.93 1026.00 1026.07 1026.15
1012.53 1013.23 1013.89 1014.49 1015.06 1015.59 1016.10 1016.61 1017.12 1017.64 1018.17 1018.70 1019.24 1019.77 1020.28 1020.76 1021.19 1021.58 1021.92 1022.20 1022.45 1022.67 1022.87 1023.07 1023.27 1023.48 1023.69 1023.92 1024.15 1024.37 1024.58 1024.76 1024.91 1025.03 1025.10 1025.15 1025.18 1025.19 1025.20 1025.21 1025.23 1025.27 1025.32 1025.38
Thickness
5733 5742 5744 5745 5743 5739 5737 5728 5722 5729 5734 5747 5752 5754 5757 5758 5757 5755 5752 5750 5748 5745 5743 5741 5739 5737 5734 5731 5728 5726 5722 5718 5716 5714 5711 5708 5706 5704 5702 5699 5698 5696 5694 5693
5726 5737 5739 5736 5738 5738 5738 5734 5734 5736 5736 5749 5750 5751 5752 5752 5751 5750 5748 5747 5745 5743 5740 5738 5736 5733 5731 5727 5725 5722 5718 5715 5713 5711 5708 5705 5702 5699 5696 5693 5691 5689 5688 5686
5705 5720 5726 5714 5726 5729 5730 5732 5732 5728 5736 5739 5740 5742 5743 5745 5746 5745 5743 5743 5741 5739 5736 5735 5733 5731 5728 5725 5722 5719 5716 5712 5710 5707 5704 5701 5698 5693 5690 5686 5684 5681 5679 5678
5692 5704 5691 5708 5728 5730 5724 5723 5727 5730 5730 5732 5733 5735 5737 5739 5740 5740 5739 5737 5736 5735 5733 5732 5730 5728 5725 5722 5718 5715 5712 5708 5706 5704 5700 5696 5692 5687 5683 5679 5676 5673 5670 5668
5675 5679 5687 5704 5718 5719 5716 5713 5722 5722 5723 5724 5726 5729 5728 5731 5732 5732 5732 5733 5732 5732 5730 5728 5725 5722 5719 5715 5712 5708 5706 5703 5701 5698 5694 5689 5684 5679 5675 5671 5667 5663 5660 5658
5668 5671 5667 5693 5712 5718 5713 5701 5717 5717 5715 5716 5717 5710 5714 5720 5721 5723 5724 5724 5725 5725 5724 5722 5719 5716 5712 5709 5705 5702 5699 5697 5694 5691 5687 5682 5677 5671 5666 5662 5657 5653 5649 5647
5662 5665 5674 5694 5703 5708 5689 5695 5710 5710 5710 5709 5706 5706 5708 5710 5711 5712 5713 5715 5715 5715 5714 5713 5712 5709 5705 5701 5698 5695 5693 5690 5686 5683 5678 5674 5668 5662 5657 5652 5647 5643 5638 5634
5651 5656 5663 5688 5693 5690 5691 5699 5701 5702 5702 5700 5699 5700 5701 5701 5700 5701 5703 5704 5705 5704 5702 5702 5702 5699 5695 5692 5690 5686 5683 5679 5675 5672 5669 5663 5657 5651 5647 5642 5637 5631 5626 5620
5654 5658 5671 5678 5682 5685 5688 5689 5691 5692 5693 5693 5692 5692 5691 5691 5691 5692 5692 5692 5693 5693 5691 5690 5690 5689 5685 5682 5679 5677 5672 5668 5664 5660 5656 5651 5646 5641 5636 5631 5626 5619 5614 5608
5650 5658 5665 5669 5673 5676 5679 5681 5683 5684 5685 5685 5684 5683 5681 5680 5680 5681 5681 5680 5681 5681 5679 5677 5677 5676 5674 5671 5668 5666 5660 5655 5651 5647 5641 5636 5631 5628 5623 5619 5614 5607 5601 5594
5644 5651 5656 5662 5664 5666 5669 5672 5673 5674 5676 5676 5675 5673 5672 5670 5669 5669 5669 5668 5669 5668 5666 5664 5663 5661 5660 5658 5656 5652 5647 5641 5637 5632 5627 5621 5615 5610 5607 5603 5601 5595 5588 5583
5638 5646 5648 5652 5656 5658 5659 5661 5663 5664 5664 5665 5665 5664 5662 5659 5658 5657 5657 5656 5656 5654 5652 5651 5650 5647 5645 5645 5643 5640 5633 5628 5623 5617 5612 5608 5603 5594 5588 5586 5582 5579 5574 5569
5639 5642 5643 5645 5647 5649 5650 5652 5654 5654 5654 5653 5653 5653 5651 5648 5646 5646 5645 5644 5643 5641 5639 5637 5636 5634 5632 5631 5630 5627 5622 5616 5610 5605 5601 5597 5591 5586 5577 5569 5565 5562 5558 5555
5633 5635 5634 5636 5638 5640 5641 5643 5643 5643 5642 5642 5642 5641 5639 5637 5635 5633 5632 5631 5630 5628 5626 5624 5623 5620 5619 5618 5617 5613 5609 5604 5599 5594 5589 5584 5580 5574 5569 5563 5555 5547 5543 5541
5625 5628 5629 5629 5630 5631 5632 5632 5633 5632 5631 5630 5630 5630 5628 5626 5623 5621 5619 5619 5618 5616 5614 5612 5611 5607 5606 5606 5604 5601 5597 5591 5586 5582 5577 5572 5567 5562 5556 5550 5544 5538 5533 5527
5618 5619 5621 5621 5622 5623 5623 5624 5624 5623 5622 5621 5620 5618 5617 5615 5612 5610 5609 5609 5608 5605 5602 5601 5599 5596 5595 5594 5592 5588 5584 5580 5576 5571 5565 5560 5556 5551 5545 5539 5533 5527 5523 5517
5613 5613 5614 5615 5616 5616 5615 5616 5616 5615 5613 5612 5610 5609 5607 5605 5603 5600 5598 5597 5596 5594 5592 5590 5588 5586 5585 5584 5582 5578 5573 5569 5565 5560 5555 5550 5545 5540 5535 5530 5523 5517 5512 5506
5613 5613 5613 5613 5611 5610 5608 5608 5607 5606 5604 5603 5602 5600 5598 5596 5593 5590 5588 5587 5585 5582 5581 5580 5578 5577 5575 5573 5571 5568 5563 5559 5555 5550 5546 5540 5535 5530 5525 5519 5514 5507 5501 5495
5607 5607 5606 5605 5605 5604 5602 5600 5598 5597 5595 5594 5593 5591 5588 5586 5584 5582 5581 5579 5577 5574 5570 5571 5570 5569 5566 5564 5562 5558 5555 5550 5545 5540 5536 5530 5525 5520 5514 5509 5503 5497 5492 5486
5602 5601 5600 5599 5599 5597 5595 5593 5591 5589 5588 5587 5585 5583 5580 5577 5575 5574 5573 5570 5567 5566 5565 5564 5563 5561 5558 5556 5554 5551 5547 5542 5537 5532 5526 5521 5516 5510 5504 5499 5494 5488 5483 5478
5598 5597 5595 5594 5592 5591 5589 5587 5586 5583 5581 5580 5578 5576 5573 5570 5569 5568 5567 5563 5559 5559 5559 5558 5556 5553 5551 5549 5546 5542 5538 5533 5528 5523 5518 5513 5507 5501 5496 5491 5486 5481 5476 5471
5592 5592 5590 5589 5587 5584 5582 5581 5580 5578 5576 5573 5571 5569 5566 5564 5562 5560 5558 5557 5554 5554 5553 5551 5549 5547 5544 5541 5537 5534 5529 5525 5519 5514 5509 5504 5499 5494 5488 5483 5479 5474 5469 5465
5588 5587 5586 5584 5582 5579 5576 5575 5574 5573 5570 5568 5566 5564 5561 5559 5557 5556 5552 5549 5549 5548 5546 5544 5542 5540 5536 5533 5529 5525 5520 5516 5511 5506 5501 5496 5492 5487 5482 5477 5473 5468 5464 5460
5583 5582 5580 5578 5576 5574 5570 5568 5567 5566 5564 5562 5560 5559 5557 5553 5550 5549 5548 5545 5543 5541 5539 5536 5534 5531 5528 5524 5520 5516 5511 5507 5502 5498 5493 5488 5484 5480 5475 5471 5467 5463 5460 5456
5578 5577 5575 5573 5571 5568 5566 5564 5562 5559 5558 5555 5553 5552 5551 5549 5547 5543 5541 5539 5537 5534 5531 5528 5526 5523 5519 5516 5512 5507 5503 5499 5495 5490 5486 5482 5478 5474 5470 5466 5463 5459 5456 5452
5572 5571 5570 5569 5567 5565 5562 5560 5557 5554 5552 5549 5547 5545 5543 5541 5540 5537 5534 5532 5529 5526 5523 5519 5517 5514 5511 5507 5503 5500 5496 5492 5487 5483 5480 5476 5472 5469 5465 5462 5459 5456 5453 5450
5567 5566 5564 5562 5560 5559 5558 5556 5553 5550 5548 5546 5543 5539 5537 5535 5532 5530 5527 5524 5521 5518 5515 5511 5509 5506 5503 5499 5495 5492 5488 5485 5481 5478 5474 5471 5468 5465 5462 5459 5456 5453 5450 5448